TGM annuale;;;;;;;;;;;;;;;TGM annuale;;;;;;;;;;;;;;;TGM annuale;;;;;;;;;;;;;
Tratta nr.26 SR71, Km 153.050, Arezzo(AR) (flussi ascendente/discendente);;;;;;;;;;;;;;;Tratta nr.26 SR71, Km 153.050, Arezzo(AR) (flusso ascendente);;;;;;;;;;;;;;;Tratta nr.26 SR71, Km 153.050, Arezzo(AR) (flusso discendente);;;;;;;;;;;;;
Anno;01 Motocicli;02 Auto e monovolume;03 Auto e monovolume con rimorchio;04 Furgoncini e camioncini;05 Camion;06 Autotreni;07 Autoarticolati;08 Autobus;09 Veicoli non classificati;Totale;Feriali;Festivi;Prefestivi;;Anno;01 Motocicli;02 Auto e monovolume;03 Auto e monovolume con rimorchio;04 Furgoncini e camioncini;05 Camion;06 Autotreni;07 Autoarticolati;08 Autobus;09 Veicoli non classificati;Totale;Feriali;Festivi;Prefestivi;;Anno;01 Motocicli;02 Auto e monovolume;03 Auto e monovolume con rimorchio;04 Furgoncini e camioncini;05 Camion;06 Autotreni;07 Autoarticolati;08 Autobus;09 Veicoli non classificati;Totale;Feriali;Festivi;Prefestivi
2018;210;16193;17;896;327;36;201;35;0;17916;19367;14116;17033;;2018;99;7604;8;432;162;16;102;16;0;8439;9501;5971;7380;;2018;111;8589;10;464;165;20;99;20;0;9476;9865;8145;9653
;;;;;;;;;;;;;;;;;;;;;;;;;;;;;;;;;;;;;;;;;;;
Tabella flussi 2018;;;;;;;;;;;;;;;Tabella flussi 2018;;;;;;;;;;;;;;;Tabella flussi 2018;;;;;;;;;;;;;
Tratta nr.26 SR71, Km 153.050, Arezzo(AR) (flussi ascendente/discendente);;;;;;;;;;;;;;;Tratta nr.26 SR71, Km 153.050, Arezzo(AR) (flusso ascendente);;;;;;;;;;;;;;;Tratta nr.26 SR71, Km 153.050, Arezzo(AR) (flusso discendente);;;;;;;;;;;;;
;Traffico Totale;;;;;;;;;;Traffico Med.Orario 06:00 - 20:00;Traffico Ora di punta;;;;Traffico Totale;;;;;;;;;;Traffico Med.Orario 06:00 - 20:00;Traffico Ora di punta;;;;Traffico Totale;;;;;;;;;;Traffico Med.Orario 06:00 - 20:00;Traffico Ora di punta;
Giorno;01 Motocicli;02 Auto e monovolume;03 Auto e monovolume con rimorchio;04 Furgoncini e camioncini;05 Camion;06 Autotreni;07 Autoarticolati;08 Autobus;09 Veicoli non classificati;Totale;Totale;Ora di punta;Flusso totale ora di punta;;Giorno;01 Motocicli;02 Auto e monovolume;03 Auto e monovolume con rimorchio;04 Furgoncini e camioncini;05 Camion;06 Autotreni;07 Autoarticolati;08 Autobus;09 Veicoli non classificati;Totale;Totale;Ora di punta;Flusso totale ora di punta;;Giorno;01 Motocicli;02 Auto e monovolume;03 Auto e monovolume con rimorchio;04 Furgoncini e camioncini;05 Camion;06 Autotreni;07 Autoarticolati;08 Autobus;09 Veicoli non classificati;Totale;Totale;Ora di punta;Flusso totale ora di punta
01/01/2018;17;12158;0;210;7;0;0;29;0;12421;602;16;1146;;01/01/2018;13;5907;0;100;3;0;0;15;0;6038;269;17;468;;01/01/2018;4;6251;0;110;4;0;0;14;0;6383;332;16;695
02/01/2018;51;15302;10;914;257;33;114;28;0;16709;1046;17;1414;;02/01/2018;24;7412;3;450;126;20;58;15;0;8108;490;18;756;;02/01/2018;27;7890;7;464;131;13;56;13;0;8601;556;17;704
03/01/2018;32;15300;14;1009;284;26;133;27;0;16825;1056;17;1353;;03/01/2018;16;7488;6;507;154;14;69;12;0;8266;507;18;739;;03/01/2018;16;7812;8;502;130;12;64;15;0;8559;549;8;692
04/01/2018;38;15768;7;948;342;46;188;25;0;17362;1073;17;1384;;04/01/2018;24;7801;3;465;177;27;109;13;0;8619;517;18;781;;04/01/2018;14;7967;4;483;165;19;79;12;0;8743;557;8;735
05/01/2018;32;17171;12;1009;305;32;156;28;0;18745;1143;17;1504;;05/01/2018;17;8338;6;486;168;16;80;14;0;9125;543;18;802;;05/01/2018;15;8833;6;523;137;16;76;14;0;9620;600;17;749
06/01/2018;43;15087;10;335;24;0;21;28;0;15548;860;16;1334;;06/01/2018;22;7428;5;172;12;0;11;12;0;7662;401;19;702;;06/01/2018;21;7659;5;163;12;0;10;16;0;7886;458;16;785
07/01/2018;62;15131;9;299;15;1;7;23;0;15547;899;17;1598;;07/01/2018;32;7611;4;150;6;0;2;12;0;7817;423;18;718;;07/01/2018;30;7520;5;149;9;1;5;11;0;7730;477;17;903
08/01/2018;51;16279;9;1057;520;48;305;28;0;18297;1155;17;1489;;08/01/2018;27;8057;4;528;267;24;155;13;0;9075;557;18;794;;08/01/2018;24;8222;5;529;253;24;150;15;0;9222;598;7;918
09/01/2018;44;16439;8;1121;521;52;305;28;0;18518;1177;17;1479;;09/01/2018;28;8063;3;549;267;29;156;14;0;9109;563;18;785;;09/01/2018;16;8376;5;572;254;23;149;14;0;9409;614;8;913
10/01/2018;56;17030;18;918;476;54;273;34;0;18859;1185;17;1514;;10/01/2018;31;8401;10;465;245;27;137;14;0;9330;568;19;809;;10/01/2018;25;8629;8;453;231;27;136;20;0;9529;616;8;896
11/01/2018;55;16786;10;1003;509;55;290;32;0;18740;1175;8;1451;;11/01/2018;32;8181;3;527;257;27;142;16;0;9185;561;18;813;;11/01/2018;23;8605;7;476;252;28;148;16;0;9555;613;7;915
12/01/2018;39;17671;10;1160;406;36;265;33;0;19620;1210;17;1490;;12/01/2018;16;8629;5;583;213;18;142;15;0;9621;584;18;866;;12/01/2018;23;9042;5;577;193;18;123;18;0;9999;626;7;918
13/01/2018;87;18517;21;574;60;1;35;29;0;19324;1114;17;1563;;13/01/2018;39;9074;11;289;30;0;16;15;0;9474;527;19;769;;13/01/2018;48;9443;10;285;30;1;19;14;0;9850;587;17;811
14/01/2018;64;16125;20;303;13;0;1;29;0;16555;947;17;1821;;14/01/2018;36;8093;6;152;7;0;0;16;0;8310;444;17;816;;14/01/2018;28;8032;14;151;6;0;1;13;0;8245;503;17;1005
15/01/2018;60;16441;22;1104;463;64;276;31;0;18461;1170;17;1523;;15/01/2018;30;8103;7;537;232;33;137;15;0;9094;562;18;805;;15/01/2018;30;8338;15;567;231;31;139;16;0;9367;608;7;959
16/01/2018;34;16375;9;1122;483;62;308;32;0;18425;1170;8;1457;;16/01/2018;18;8059;5;552;247;30;167;16;0;9094;563;19;782;;16/01/2018;16;8316;4;570;236;32;141;16;0;9331;607;7;902
17/01/2018;48;17083;14;1103;482;42;288;28;0;19088;1191;17;1505;;17/01/2018;22;8428;8;530;252;20;150;13;0;9423;570;18;821;;17/01/2018;26;8655;6;573;230;22;138;15;0;9665;622;7;936
18/01/2018;56;17094;13;1061;464;63;312;33;0;19096;1195;17;1507;;18/01/2018;28;8419;6;520;231;32;161;14;0;9411;572;18;869;;18/01/2018;28;8675;7;541;233;31;151;19;0;9685;623;7;948
19/01/2018;55;17675;13;1135;467;40;323;34;0;19742;1210;8;1468;;19/01/2018;24;8625;9;558;243;18;163;17;0;9657;579;18;797;;19/01/2018;31;9050;4;577;224;22;160;17;0;10085;630;7;940
20/01/2018;57;18191;14;585;48;5;25;32;0;18957;1085;17;1511;;20/01/2018;24;8851;6;296;20;2;12;16;0;9227;506;18;796;;20/01/2018;33;9340;8;289;28;3;13;16;0;9730;578;17;805
21/01/2018;63;15563;12;293;16;1;6;29;0;15983;920;17;1708;;21/01/2018;31;7839;6;147;8;0;3;14;0;8048;436;18;757;;21/01/2018;32;7724;6;146;8;1;3;15;0;7935;484;17;996
22/01/2018;57;16141;15;1046;501;84;292;36;0;18172;1146;7;1434;;22/01/2018;31;8038;8;502;243;43;158;16;0;9039;553;18;805;;22/01/2018;26;8103;7;544;258;41;134;20;0;9133;593;7;941
23/01/2018;70;16830;14;1132;489;52;336;31;0;18954;1201;17;1549;;23/01/2018;33;8241;8;564;253;25;168;14;0;9306;578;18;862;;23/01/2018;37;8589;6;568;236;27;168;17;0;9648;623;7;926
24/01/2018;72;17023;10;1062;509;61;326;29;0;19092;1189;17;1555;;24/01/2018;40;8404;6;528;266;26;172;14;0;9456;570;19;816;;24/01/2018;32;8619;4;534;243;35;154;15;0;9636;619;8;899
25/01/2018;63;17248;16;1111;531;54;290;29;0;19342;1203;17;1531;;25/01/2018;29;8501;6;548;271;25;139;13;0;9532;575;18;837;;25/01/2018;34;8747;10;563;260;29;151;16;0;9810;628;8;906
26/01/2018;48;17655;18;1169;477;31;279;31;0;19708;1210;17;1502;;26/01/2018;23;8574;10;580;247;16;144;15;0;9609;579;19;812;;26/01/2018;25;9081;8;589;230;15;135;16;0;10099;632;7;919
27/01/2018;86;18156;22;608;64;1;29;34;0;19000;1084;17;1504;;27/01/2018;48;8881;12;310;29;0;16;16;0;9312;513;19;745;;27/01/2018;38;9275;10;298;35;1;13;18;0;9688;570;17;866
28/01/2018;118;15616;8;261;9;2;3;26;0;16043;923;17;1650;;28/01/2018;67;7861;3;132;6;1;1;12;0;8083;439;18;719;;28/01/2018;51;7755;5;129;3;1;2;14;0;7960;484;17;942
29/01/2018;64;16387;23;1056;486;54;346;28;0;18444;1169;17;1528;;29/01/2018;27;8041;11;509;241;25;173;12;0;9039;558;18;794;;29/01/2018;37;8346;12;547;245;29;173;16;0;9405;611;7;944
30/01/2018;62;16567;17;1178;492;45;286;31;0;18678;1185;17;1500;;30/01/2018;37;8177;6;591;255;22;140;14;0;9242;570;18;804;;30/01/2018;25;8390;11;587;237;23;146;17;0;9436;615;7;962
31/01/2018;51;16707;11;1180;480;51;311;31;0;18822;1180;17;1507;;31/01/2018;34;8239;5;568;247;26;165;15;0;9299;566;19;830;;31/01/2018;17;8468;6;612;233;25;146;16;0;9523;614;7;932
01/02/2018;50;17086;11;1206;536;44;286;30;0;19249;1198;17;1584;;01/02/2018;25;8439;7;581;275;26;146;14;0;9513;575;17;837;;01/02/2018;25;8647;4;625;261;18;140;16;0;9736;623;7;959
02/02/2018;29;17398;9;1171;443;31;250;32;0;19363;1191;17;1456;;02/02/2018;17;8511;4;578;235;14;132;16;0;9507;574;19;827;;02/02/2018;12;8887;5;593;208;17;118;16;0;9856;617;7;930
03/02/2018;32;17133;6;523;59;2;33;36;0;17824;1027;17;1327;;03/02/2018;16;8393;3;255;30;1;20;16;0;8734;489;12;704;;03/02/2018;16;8740;3;268;29;1;13;20;0;9090;538;16;708
04/02/2018;36;15962;6;259;8;0;3;26;0;16300;940;17;1742;;04/02/2018;21;7987;4;130;4;0;1;14;0;8161;443;18;706;;04/02/2018;15;7975;2;129;4;0;2;12;0;8139;497;17;1051
05/02/2018;52;16648;12;1166;536;48;340;31;0;18833;1187;8;1481;;05/02/2018;24;8249;5;556;270;21;174;12;0;9311;570;18;772;;05/02/2018;28;8399;7;610;266;27;166;19;0;9522;617;7;915
06/02/2018;41;16584;15;1157;527;56;326;27;0;18733;1189;8;1461;;06/02/2018;21;8156;7;572;273;30;174;12;0;9245;571;18;864;;06/02/2018;20;8428;8;585;254;26;152;15;0;9488;618;7;949
07/02/2018;42;16900;12;1092;540;46;328;30;0;18990;1193;17;1469;;07/02/2018;22;8333;4;519;276;23;168;14;0;9359;572;19;827;;07/02/2018;20;8567;8;573;264;23;160;16;0;9631;621;7;918
08/02/2018;66;17148;16;1160;557;47;321;36;0;19351;1207;17;1500;;08/02/2018;45;8417;6;579;278;25;166;18;0;9534;576;19;827;;08/02/2018;21;8731;10;581;279;22;155;18;0;9817;631;7;920
09/02/2018;44;17440;16;1096;549;52;298;28;0;19523;1197;17;1525;;09/02/2018;18;8520;8;524;280;21;158;13;0;9542;575;19;831;;09/02/2018;26;8920;8;572;269;31;140;15;0;9981;622;7;925
10/02/2018;92;18260;22;613;53;7;36;28;0;19111;1107;17;1520;;10/02/2018;40;8956;12;303;23;2;20;13;0;9369;525;13;737;;10/02/2018;52;9304;10;310;30;5;16;15;0;9742;581;17;827
11/02/2018;67;15743;18;289;16;0;4;28;0;16165;926;17;1616;;11/02/2018;35;7924;10;142;11;0;1;13;0;8136;440;17;702;;11/02/2018;32;7819;8;147;5;0;3;15;0;8029;486;17;914
12/02/2018;45;16787;13;1019;574;54;269;35;0;18796;1192;17;1459;;12/02/2018;27;8226;7;489;278;29;135;16;0;9207;568;18;844;;12/02/2018;18;8561;6;530;296;25;134;19;0;9589;623;7;927
13/02/2018;50;16925;14;1118;575;31;336;30;0;19079;1187;17;1510;;13/02/2018;24;8206;7;543;291;10;186;14;0;9281;563;18;833;;13/02/2018;26;8719;7;575;284;21;150;16;0;9798;624;7;959
14/02/2018;46;17984;14;1104;497;45;295;26;0;20011;1222;18;1517;;14/02/2018;22;8878;7;547;240;20;155;12;0;9881;583;18;889;;14/02/2018;24;9106;7;557;257;25;140;14;0;10130;640;8;899
15/02/2018;56;17876;9;1035;547;55;308;35;0;19921;1233;17;1564;;15/02/2018;30;8757;4;517;263;23;155;16;0;9765;582;18;896;;15/02/2018;26;9119;5;518;284;32;153;19;0;10156;650;7;964
16/02/2018;69;17656;13;1141;497;49;283;32;0;19740;1210;17;1513;;16/02/2018;28;8671;6;565;246;22;150;14;0;9702;581;19;841;;16/02/2018;41;8985;7;576;251;27;133;18;0;10038;629;7;941
17/02/2018;86;17181;14;591;76;2;40;34;0;18024;1043;17;1367;;17/02/2018;34;8393;7;288;36;1;21;16;0;8796;493;12;692;;17/02/2018;52;8788;7;303;40;1;19;18;0;9228;550;17;697
18/02/2018;41;15010;4;251;19;0;4;24;0;15353;877;17;1657;;18/02/2018;26;7575;3;133;8;0;2;11;0;7758;417;17;768;;18/02/2018;15;7435;1;118;11;0;2;13;0;7595;460;17;889
19/02/2018;48;17120;8;1135;531;53;319;31;0;19245;1216;17;1505;;19/02/2018;26;8446;2;536;267;29;156;13;0;9475;582;18;825;;19/02/2018;22;8674;6;599;264;24;163;18;0;9770;633;7;943
20/02/2018;45;16693;7;1144;540;51;323;31;0;18834;1198;17;1538;;20/02/2018;26;8172;2;560;269;26;162;15;0;9232;572;18;895;;20/02/2018;19;8521;5;584;271;25;161;16;0;9602;626;7;958
21/02/2018;46;16802;8;1120;537;55;320;36;0;18924;1191;17;1509;;21/02/2018;24;8287;4;545;259;31;152;18;0;9320;569;18;804;;21/02/2018;22;8515;4;575;278;24;168;18;0;9604;622;7;930
22/02/2018;32;17036;17;1169;555;57;368;26;0;19260;1203;18;1492;;22/02/2018;20;8404;10;573;267;28;187;12;0;9501;575;18;903;;22/02/2018;12;8632;7;596;288;29;181;14;0;9759;628;7;952
23/02/2018;35;17462;17;1202;524;37;285;30;0;19592;1205;8;1489;;23/02/2018;17;8584;7;582;270;19;145;15;0;9639;581;18;818;;23/02/2018;18;8878;10;620;254;18;140;15;0;9953;624;7;933
24/02/2018;69;17956;10;578;63;10;44;35;0;18765;1083;17;1435;;24/02/2018;41;8723;5;288;29;7;21;19;0;9133;513;19;731;;24/02/2018;28;9233;5;290;34;3;23;16;0;9632;570;17;761
25/02/2018;26;13070;6;241;23;0;4;32;0;13402;770;16;1219;;25/02/2018;18;6572;3;127;9;0;2;16;0;6747;364;16;588;;25/02/2018;8;6498;3;114;14;0;2;16;0;6655;406;17;661
26/02/2018;39;15229;10;937;173;11;125;32;0;16556;1063;17;1340;;26/02/2018;24;7457;4;452;74;5;55;14;0;8085;508;18;757;;26/02/2018;15;7772;6;485;99;6;70;18;0;8471;555;7;870
27/02/2018;41;16244;16;1121;555;70;365;26;0;18438;1176;17;1465;;27/02/2018;21;8007;7;559;264;28;187;13;0;9086;565;18;827;;27/02/2018;20;8237;9;562;291;42;178;13;0;9352;611;7;930
28/02/2018;39;16443;12;1077;485;51;351;33;0;18491;1175;17;1451;;28/02/2018;18;8084;5;543;235;24;180;16;0;9105;565;18;810;;28/02/2018;21;8359;7;534;250;27;171;17;0;9386;609;7;877
01/03/2018;14;9641;7;661;79;7;106;33;0;10548;656;17;917;;01/03/2018;4;4695;2;328;41;5;51;16;0;5142;312;17;484;;01/03/2018;10;4946;5;333;38;2;55;17;0;5406;343;8;482
02/03/2018;28;16501;13;1030;301;36;197;36;0;18142;1111;17;1413;;02/03/2018;11;7982;6;490;157;20;97;17;0;8780;526;18;746;;02/03/2018;17;8519;7;540;144;16;100;19;0;9362;585;8;840
03/03/2018;25;17070;6;567;83;4;33;28;0;17816;1024;16;1334;;03/03/2018;13;8330;2;281;40;2;17;13;0;8698;486;19;666;;03/03/2018;12;8740;4;286;43;2;16;15;0;9118;538;16;723
04/03/2018;53;16631;7;310;13;1;9;25;0;17049;988;17;1781;;04/03/2018;23;8295;3;154;4;1;6;13;0;8499;464;17;771;;04/03/2018;30;8336;4;156;9;0;3;12;0;8550;524;17;1010
05/03/2018;41;16386;19;1027;546;53;349;46;0;18467;1161;8;1409;;05/03/2018;25;8003;9;515;277;24;179;17;0;9049;555;18;780;;05/03/2018;16;8383;10;512;269;29;170;29;0;9418;606;7;924
06/03/2018;35;16935;19;1142;494;62;355;33;0;19075;1211;18;1489;;06/03/2018;17;8316;8;595;251;26;173;14;0;9400;582;18;881;;06/03/2018;18;8619;11;547;243;36;182;19;0;9675;629;8;937
07/03/2018;44;17023;17;1107;500;56;344;36;0;19127;1205;8;1509;;07/03/2018;27;8346;8;553;247;24;175;16;0;9396;576;18;826;;07/03/2018;17;8677;9;554;253;32;169;20;0;9731;628;7;967
08/03/2018;68;17788;18;1186;553;63;317;35;0;20028;1237;8;1515;;08/03/2018;36;8678;9;581;268;31;164;17;0;9784;587;19;855;;08/03/2018;32;9110;9;605;285;32;153;18;0;10244;650;7;981
09/03/2018;86;18148;27;1284;509;39;288;37;0;20418;1249;8;1561;;09/03/2018;44;8932;14;631;261;20;149;17;0;10068;603;19;877;;09/03/2018;42;9216;13;653;248;19;139;20;0;10350;646;7;960
10/03/2018;74;18826;35;724;96;0;32;43;0;19830;1152;17;1390;;10/03/2018;35;9154;21;370;42;0;16;20;0;9658;541;19;719;;10/03/2018;39;9672;14;354;54;0;16;23;0;10172;611;16;761
11/03/2018;31;14909;14;246;14;0;4;34;0;15252;867;17;1503;;11/03/2018;21;7488;9;137;5;0;2;14;0;7676;412;17;695;;11/03/2018;10;7421;5;109;9;0;2;20;0;7576;455;17;808
12/03/2018;36;16641;10;1078;441;62;316;29;0;18613;1171;17;1475;;12/03/2018;14;8167;4;529;213;29;160;13;0;9129;560;18;826;;12/03/2018;22;8474;6;549;228;33;156;16;0;9484;611;7;956
13/03/2018;51;17078;13;1149;485;44;301;29;0;19150;1214;8;1508;;13/03/2018;27;8374;3;569;250;22;152;14;0;9411;583;18;891;;13/03/2018;24;8704;10;580;235;22;149;15;0;9739;631;8;985
14/03/2018;93;17552;24;1063;456;59;298;37;0;19582;1228;17;1599;;14/03/2018;49;8566;12;547;234;29;145;17;0;9599;586;17;831;;14/03/2018;44;8986;12;516;222;30;153;20;0;9983;642;8;980
15/03/2018;51;17472;8;1179;496;51;308;37;0;19602;1228;8;1556;;15/03/2018;26;8576;2;592;243;24;156;18;0;9637;589;19;826;;15/03/2018;25;8896;6;587;253;27;152;19;0;9965;639;7;987
16/03/2018;48;17493;14;1083;460;43;287;31;0;19459;1187;8;1528;;16/03/2018;27;8662;7;560;234;23;149;15;0;9677;576;18;816;;16/03/2018;21;8831;7;523;226;20;138;16;0;9782;611;8;922
17/03/2018;49;18329;12;565;65;3;33;35;0;19091;1100;17;1450;;17/03/2018;28;8920;7;286;30;3;17;16;0;9307;519;19;726;;17/03/2018;21;9409;5;279;35;0;16;19;0;9784;581;17;733
18/03/2018;21;15610;11;291;20;0;3;24;0;15980;908;17;1610;;18/03/2018;16;7834;7;146;10;0;1;11;0;8025;427;17;705;;18/03/2018;5;7776;4;145;10;0;2;13;0;7955;482;17;905
19/03/2018;38;16914;14;1091;504;46;351;35;0;18993;1200;8;1518;;19/03/2018;17;8340;8;508;242;18;182;18;0;9333;575;18;825;;19/03/2018;21;8574;6;583;262;28;169;17;0;9660;624;8;956
20/03/2018;48;16877;19;1183;495;36;375;40;0;19073;1210;17;1583;;20/03/2018;27;8290;12;596;253;14;202;18;0;9412;582;18;835;;20/03/2018;21;8587;7;587;242;22;173;22;0;9661;628;7;970
21/03/2018;48;17166;16;1195;504;49;356;36;0;19370;1212;8;1518;;21/03/2018;23;8443;7;580;255;28;186;16;0;9538;581;18;842;;21/03/2018;25;8723;9;615;249;21;170;20;0;9832;631;7;984
22/03/2018;46;17484;12;1069;484;50;333;32;0;19510;1214;8;1529;;22/03/2018;27;8576;5;530;234;22;178;15;0;9587;579;18;868;;22/03/2018;19;8908;7;539;250;28;155;17;0;9923;635;7;969
23/03/2018;82;18273;20;1221;493;51;295;40;0;20475;1253;18;1556;;23/03/2018;38;8928;10;616;245;22;155;18;0;10032;602;18;898;;23/03/2018;44;9345;10;605;248;29;140;22;0;10443;651;8;961
24/03/2018;140;18116;14;618;100;5;36;44;0;19073;1093;19;1393;;24/03/2018;69;8857;7;306;47;1;19;21;0;9327;521;19;757;;24/03/2018;71;9259;7;312;53;4;17;23;0;9746;572;16;759
25/03/2018;108;16007;11;288;16;1;4;26;0;16461;940;17;1632;;25/03/2018;57;8052;5;143;8;0;2;13;0;8280;443;18;790;;25/03/2018;51;7955;6;145;8;1;2;13;0;8181;497;17;900
26/03/2018;81;17270;14;1197;483;51;316;28;0;19440;1220;8;1559;;26/03/2018;34;8504;7;567;242;23;162;14;0;9553;586;18;883;;26/03/2018;47;8766;7;630;241;28;154;14;0;9887;635;8;972
27/03/2018;;;;;;;;;;;;;;;27/03/2018;;;;;;;;;;;;;;;27/03/2018;;;;;;;;;;;;;
28/03/2018;;;;;;;;;;;;;;;28/03/2018;;;;;;;;;;;;;;;28/03/2018;;;;;;;;;;;;;
29/03/2018;;;;;;;;;;;;;;;29/03/2018;;;;;;;;;;;;;;;29/03/2018;;;;;;;;;;;;;
30/03/2018;;;;;;;;;;;;;;;30/03/2018;;;;;;;;;;;;;;;30/03/2018;;;;;;;;;;;;;
31/03/2018;46;17135;18;629;58;0;24;35;0;17945;1049;11;1381;;31/03/2018;29;8488;8;313;25;0;12;18;0;8893;501;12;745;;31/03/2018;17;8647;10;316;33;0;12;17;0;9052;548;10;765
01/04/2018;111;13618;9;201;4;1;1;19;0;13964;761;12;1412;;01/04/2018;49;6807;7;109;4;1;1;9;0;6987;368;12;812;;01/04/2018;62;6811;2;92;0;0;0;10;0;6977;393;16;745
02/04/2018;239;15518;12;385;31;1;10;35;0;16231;939;17;1430;;02/04/2018;127;7609;5;198;15;0;4;18;0;7976;435;12;639;;02/04/2018;112;7909;7;187;16;1;6;17;0;8255;505;17;830
03/04/2018;125;17513;10;1133;232;31;181;31;0;19256;1196;18;1553;;03/04/2018;62;8480;4;543;111;12;92;15;0;9319;562;18;873;;03/04/2018;63;9033;6;590;121;19;89;16;0;9937;634;8;889
04/04/2018;46;17544;13;1129;543;58;323;33;0;19689;1245;17;1543;;04/04/2018;22;8575;6;553;271;27;169;16;0;9639;593;18;852;;04/04/2018;24;8969;7;576;272;31;154;17;0;10050;652;7;951
05/04/2018;81;18028;24;1286;542;51;288;38;0;20338;1270;17;1581;;05/04/2018;43;8867;9;620;268;25;144;15;0;9991;606;18;872;;05/04/2018;38;9161;15;666;274;26;144;23;0;10347;664;8;964
06/04/2018;170;18695;21;1269;473;46;255;40;0;20969;1272;17;1633;;06/04/2018;81;9079;9;626;236;25;130;18;0;10204;610;19;917;;06/04/2018;89;9616;12;643;237;21;125;22;0;10765;662;8;975
07/04/2018;324;18852;22;647;70;3;35;39;0;19992;1130;18;1492;;07/04/2018;150;9190;10;313;34;1;18;18;0;9734;531;19;773;;07/04/2018;174;9662;12;334;36;2;17;21;0;10258;599;18;762
08/04/2018;309;15963;26;462;23;1;6;36;0;16826;949;18;1534;;08/04/2018;147;8043;15;232;11;1;3;17;0;8469;452;19;775;;08/04/2018;162;7920;11;230;12;0;3;19;0;8357;498;18;818
09/04/2018;38;17009;23;1152;487;45;295;41;0;19090;1206;17;1497;;09/04/2018;27;8359;14;564;242;21;143;19;0;9389;579;18;854;;09/04/2018;11;8650;9;588;245;24;152;22;0;9701;627;7;950
10/04/2018;57;17449;6;1157;500;55;283;43;0;19550;1234;17;1531;;10/04/2018;26;8520;2;576;261;25;137;20;0;9567;589;18;859;;10/04/2018;31;8929;4;581;239;30;146;23;0;9983;645;7;999
11/04/2018;57;17637;19;1174;497;50;279;40;0;19753;1240;8;1572;;11/04/2018;31;8692;8;570;244;24;144;19;0;9732;595;19;858;;11/04/2018;26;8945;11;604;253;26;135;21;0;10021;646;8;960
12/04/2018;66;17917;20;1171;477;49;339;43;0;20082;1248;8;1543;;12/04/2018;32;8826;6;578;234;26;174;21;0;9897;598;19;857;;12/04/2018;34;9091;14;593;243;23;165;22;0;10185;650;8;987
13/04/2018;130;18705;16;1208;451;45;292;37;0;20884;1269;17;1615;;13/04/2018;60;9149;7;558;235;25;143;20;0;10197;608;18;900;;13/04/2018;70;9556;9;650;216;20;149;17;0;10687;661;8;944
14/04/2018;302;18743;19;653;60;7;38;37;0;19859;1128;17;1450;;14/04/2018;140;9168;5;333;28;3;21;19;0;9717;532;19;771;;14/04/2018;162;9575;14;320;32;4;17;18;0;10142;596;17;799
15/04/2018;83;16644;19;326;24;1;5;41;0;17143;970;17;1609;;15/04/2018;48;8316;9;165;13;1;0;17;0;8569;457;18;749;;15/04/2018;35;8328;10;161;11;0;5;24;0;8574;513;17;880
16/04/2018;97;17454;27;1180;527;54;344;41;0;19724;1241;17;1593;;16/04/2018;52;8579;10;580;260;23;171;18;0;9693;594;19;850;;16/04/2018;45;8875;17;600;267;31;173;23;0;10031;646;7;1009
17/04/2018;89;17557;21;1260;552;65;365;51;0;19960;1251;18;1567;;17/04/2018;47;8579;9;623;276;30;186;25;0;9775;595;18;911;;17/04/2018;42;8978;12;637;276;35;179;26;0;10185;656;7;1013
18/04/2018;154;17762;18;1236;545;52;361;49;0;20177;1255;17;1589;;18/04/2018;84;8765;7;611;276;24;183;23;0;9973;602;19;847;;18/04/2018;70;8997;11;625;269;28;178;26;0;10204;653;8;983
19/04/2018;241;18204;19;1203;544;43;362;54;0;20670;1284;17;1610;;19/04/2018;105;9000;7;599;266;21;182;22;0;10202;617;18;903;;19/04/2018;136;9204;12;604;278;22;180;32;0;10468;667;7;1017
20/04/2018;229;18507;19;1291;516;52;310;46;0;20970;1274;17;1573;;20/04/2018;117;9065;4;607;274;25;160;20;0;10272;610;19;891;;20/04/2018;112;9442;15;684;242;27;150;26;0;10698;664;7;967
21/04/2018;391;18236;29;676;91;12;41;50;0;19526;1115;19;1347;;21/04/2018;177;8909;14;326;47;6;19;24;0;9522;528;12;754;;21/04/2018;214;9327;15;350;44;6;22;26;0;10004;588;9;712
22/04/2018;459;16441;19;314;31;2;6;34;0;17306;985;18;1676;;22/04/2018;212;8303;11;163;12;1;2;16;0;8720;469;19;759;;22/04/2018;247;8138;8;151;19;1;4;18;0;8586;516;18;950
23/04/2018;231;17403;23;1283;528;60;326;36;0;19890;1245;8;1606;;23/04/2018;120;8454;9;619;269;27;157;16;0;9671;591;18;847;;23/04/2018;111;8949;14;664;259;33;169;20;0;10219;654;8;1009
24/04/2018;275;18262;23;1288;558;41;354;47;0;20848;1285;17;1568;;24/04/2018;146;8824;10;609;284;20;185;24;0;10102;609;19;911;;24/04/2018;129;9438;13;679;274;21;169;23;0;10746;676;7;1041
25/04/2018;462;15082;23;444;49;5;17;30;0;16112;937;18;1467;;25/04/2018;232;7534;12;230;27;3;7;12;0;8057;454;11;643;;25/04/2018;230;7548;11;214;22;2;10;18;0;8055;483;18;884
26/04/2018;253;17925;25;1290;599;49;351;42;0;20534;1270;8;1585;;26/04/2018;115;8760;8;620;286;26;173;21;0;10009;604;18;847;;26/04/2018;138;9165;17;670;313;23;178;21;0;10525;666;8;974
27/04/2018;327;18335;27;1331;513;41;378;43;0;20995;1274;18;1622;;27/04/2018;158;8841;17;647;262;20;198;21;0;10164;605;18;906;;27/04/2018;169;9494;10;684;251;21;180;22;0;10831;669;7;944
28/04/2018;533;17672;22;697;77;2;32;55;0;19090;1108;18;1377;;28/04/2018;206;8699;9;333;37;0;17;25;0;9326;525;12;739;;28/04/2018;327;8973;13;364;40;2;15;30;0;9764;583;17;729
29/04/2018;412;15649;23;346;23;0;3;39;0;16495;928;18;1493;;29/04/2018;200;7854;5;173;8;0;1;19;0;8260;436;18;645;;29/04/2018;212;7795;18;173;15;0;2;20;0;8235;491;18;848
30/04/2018;373;16924;16;1031;344;34;175;38;0;18935;1141;17;1464;;30/04/2018;199;8216;9;499;176;16;88;20;0;9223;543;18;781;;30/04/2018;174;8708;7;532;168;18;87;18;0;9712;598;10;723
01/05/2018;147;13984;4;401;35;1;7;33;0;14612;856;17;1438;;01/05/2018;85;6935;4;217;15;0;4;16;0;7276;406;16;685;;01/05/2018;62;7049;0;184;20;1;3;17;0;7336;451;17;782
02/05/2018;86;17946;14;1315;570;60;355;38;0;20384;1276;17;1576;;02/05/2018;45;8802;7;629;279;25;185;17;0;9989;610;18;870;;02/05/2018;41;9144;7;686;291;35;170;21;0;10395;666;7;1007
03/05/2018;45;18152;13;1317;602;54;350;40;0;20573;1283;17;1601;;03/05/2018;20;8941;5;621;301;25;174;20;0;10107;611;18;874;;03/05/2018;25;9211;8;696;301;29;176;20;0;10466;671;7;1003
04/05/2018;79;18875;25;1269;516;65;357;44;0;21230;1290;17;1614;;04/05/2018;37;9208;12;638;261;29;178;20;0;10383;617;18;900;;04/05/2018;42;9667;13;631;255;36;179;24;0;10847;673;7;979